Meteo Giornale » Osservazioni meteo Italia » Verona-Villafranca

ore: 02:50 - Osservazioni Meteo Verona-Villafranca
Lat. 45° 23' N Lon. 10° 52' E Alt. 67 metri s.l.m.

nebbia Europe/Rome

13 °C

Banco di Nebbia

Temp. 24 Ore

13 °C

21 °C

Nord

3.7 Km/h

Dew point 12 °C

Umidità 93 %

Visibilità  2 Km

Il sole sorge alle ore 05:37

Il sole tramonta alle ore 20:49

Data e Ora Cielo e Fenomeni T °C DP °C Um. % Pres. hPa Vis. km Vento km/h
Oggi h: 02:50 nebbia Banco di Nebbia 13 12 93 1012 2 N 3.7
Oggi h: 02:20 nebbia Banco di Nebbia 13 13 100 1012 2 N 3.7
Oggi h: 01:50 nebbia Banco di Nebbia 13 13 100 1012 6 N 1.8
Oggi h: 01:20 nebbia Banco di Nebbia 13 13 100 1012 6 N 3.7
Oggi h: 00:50 molto_nuvoloso Molto Nuvoloso 14 14 100 1012 7 N 1.8
Oggi h: 00:20 molto_nuvoloso Molto Nuvoloso 15 14 93 1012 7 S 7.4
Ieri h: 23:50 nuvoloso Nuvoloso 15 14 93 1012 7 N 5.5
Ieri h: 23:20 coperto_pioggia Pioggia Debole 15 14 93 1012 7 N 3.7
Ieri h: 22:50 coperto_pioggia Pioggia Debole 15 14 93 1012 8 N 1.8
Ieri h: 22:20 coperto_pioggia Pioggia Temporale nelle Vicinanze 16 14 87 1012 7 E 9.3
Ieri h: 21:50 coperto_pioggia Pioggia Temporale nelle Vicinanze 16 14 87 1012 6 E 7.4
Ieri h: 21:20 coperto_pioggia Pioggia 16 14 87 1011 6 S/SE 7.4
Ieri h: 20:50 coperto_pioggia Pioggia 17 13 77 1011 6 N 3.7
Ieri h: 20:20 molto_nuvoloso Molto Nuvoloso 18 13 72 1010 8 E 9.3
Ieri h: 19:50 molto_nuvoloso Molto Nuvoloso 18 13 72 1010 8 E 14.8
Ieri h: 19:20 molto_nuvoloso Molto Nuvoloso 18 13 72 1010 9 E 13
Ieri h: 18:50 molto_nuvoloso Molto Nuvoloso 19 14 72 1009 9 E 13
Ieri h: 18:20 molto_nuvoloso Molto Nuvoloso 20 14 68 1009 8 E/NE 14.8
Ieri h: 17:50 molto_nuvoloso Molto Nuvoloso 20 14 68 1009 9 E/NE 13
Ieri h: 17:20 molto_nuvoloso Molto Nuvoloso 21 14 64 1009 9 E 11.1
Ieri h: 16:50 molto_nuvoloso Molto Nuvoloso 21 14 64 1009 9 E 7.4
Ieri h: 16:20 molto_nuvoloso Molto Nuvoloso 21 14 64 1009 10 N 3.7
Ieri h: 15:50 molto_nuvoloso Molto Nuvoloso 21 14 64 1009 10 N 3.7
Ieri h: 15:20 molto_nuvoloso Molto Nuvoloso 21 13 60 1009 10 N 3.7
Ieri h: 14:50 nuvoloso Nuvoloso 20 13 64 1009 10 SO 7.4
Ieri h: 14:20 nuvoloso Nuvoloso 20 13 64 1009 10 O 9.3
Ieri h: 13:50 nuvoloso Nuvoloso 20 13 64 1009 8 O 13
Ieri h: 13:20 nuvoloso Nuvoloso 19 13 68 1008 8 O/SO 11.1
Ieri h: 12:50 nuvoloso Nuvoloso 19 13 68 1008 8 O 13
Ieri h: 12:20 nuvoloso Nuvoloso 18 13 72 1008 8 O 13
Ieri h: 11:50 nuvoloso Nuvoloso 17 12 72 1008 8 O 13
Ieri h: 11:20 nuvoloso Nuvoloso 17 12 72 1008 7 O 14.8
Ieri h: 10:50 nuvoloso Nuvoloso 17 12 72 1008 7 O/SO 16.7
Ieri h: 10:20 nuvoloso Nuvoloso 16 12 77 1008 7 O/SO 20.3
Ieri h: 09:50 nuvoloso Nuvoloso 16 13 82 1008 7 O/SO 18.5
Ieri h: 09:20 nuvoloso Nuvoloso 15 12 82 1007 7 O/SO 13
Ieri h: 08:50 nuvoloso Nuvoloso 15 12 82 1007 8 O/SO 13
Ieri h: 08:20 molto_nuvoloso Molto Nuvoloso 14 12 87 1007 7 O/SO 14.8
Ieri h: 07:50 molto_nuvoloso Molto Nuvoloso 14 11 82 1007 8 O 11.1
Ieri h: 07:20 molto_nuvoloso Molto Nuvoloso 14 11 82 1007 8 O/SO 16.7
Ieri h: 06:50 molto_nuvoloso Molto Nuvoloso 14 11 82 1006 10 O/SO 11.1
Ieri h: 06:20 molto_nuvoloso Molto Nuvoloso 13 11 87 1006 10 SO 13
Ieri h: 05:50 molto_nuvoloso Molto Nuvoloso 14 11 82 1006 10 SO 13
Ieri h: 05:20 molto_nuvoloso Molto Nuvoloso 13 12 93 1006 10 S/SO 9.3
Ieri h: 04:50 molto_nuvoloso Molto Nuvoloso 13 12 93 1006 10 N 5.5
Ieri h: 04:20 molto_nuvoloso Molto Nuvoloso 13 12 93 1006 10 N 5.5
Ieri h: 03:50 nuvoloso Nuvoloso 13 12 93 1006 10 N 5.5